Location: Prairie View Elementary School
(39.8322°N, 99.5698°W)
Time: 07:12:30
(UTC+00:00)

Cosmos 1302 Rocket - Pass Details

Date: 08 December 2019
Orbit: 757 x 775 km, 74.0° (Epoch: 27 January)

Event Time Altitude Azimuth Distance (km) Brightness Sun altitude
Rises 00:00:10 0° 340° (NNW) 3,255 7.2 -8.9°
Reaches altitude 10° 00:02:34 10° 339° (NNW) 2,322 6.5 -9.4°
Maximum altitude 00:07:51 82° 253° (WSW) 780 4.1 -10.3°
Drops below altitude 10° 00:13:03 10° 166° (SSE) 2,294 6.6 -11.2°
Sets 00:15:25 0° 165° (SSE) 3,213 7.3 -11.7°
